Home > Time Zones > World Clock > Weather > Latvia > Riga > Past weeks

Flag for Latvia Weather past 2 weeks in Riga, Latvia

32 °F

Mostly cloudy.

Feels Like: 22 °F
Forecast: 32 / 38 °F
Wind: 14 mph from South

Location: Riga Airport

Current Time: Nov 28, 2015 at 3:13:02 AM

Latest Report: Nov 28, 2015 at 1:50 AM

Visibility: 4 mi

Pressure: 29.89 "Hg

Humidity: 93%

Dew point: 30 °F

Location of RigaLocation

Historic Weather in Riga — Graph


Riga temperature yesterday

Maximum temperature yesterday: 39 °F (at 2:50 PM)
Minimum temperature yesterday: 30 °F (at 12:20 AM)
Average temperature yesterday: 34 °F

Past Weeks' High & Low Weather Summary

High50 °F (Nov 18, 2:20 PM)100% (Nov 14, 1:50 AM)30.09 "Hg (Nov 14, 1:50 AM)
Low19 °F (Nov 22, 7:50 AM)76% (Nov 15, 12:50 PM)29.18 "Hg (Nov 18, 12:50 PM)
Average37 °F95%29.67 "Hg
* Reported Nov 13 1:20 AM — Nov 28 1:50 AM, Riga, Weather by CustomWeather, © 2015

Note: Actual official high and low records may vary slightly from our data, if they occured in-between our weather recording intervals... More about our weather records


Riga weather history for previous 24 hours

Time TempWeatherWind HumidityBarometerVisibility
1:50 AM
Sat, Nov 28
32 °FMostly cloudy.14 mph93%29.89 "Hg4 mi
12:50 AM34 °FOvercast.13 mph93%29.89 "Hg4 mi
12:20 AM34 °FOvercast.13 mph93%29.89 "Hg5 mi
11:50 PM
Fri, Nov 27
34 °FOvercast.13 mph93%29.92 "Hg5 mi
10:50 PM34 °FPassing clouds.14 mph93%29.92 "Hg5 mi
10:20 PM34 °FPassing clouds.14 mph93%29.92 "Hg5 mi
9:50 PM34 °FPassing clouds.13 mph93%29.92 "Hg5 mi
9:20 PM34 °FPassing clouds.12 mph93%29.92 "Hg5 mi
8:50 PM36 °FPassing clouds.10 mph87%29.92 "Hg5 mi
8:20 PM34 °FPassing clouds.10 mph93%29.92 "Hg5 mi
7:20 PM34 °FPassing clouds.12 mph93%29.92 "Hg4 mi
6:50 PM36 °FPassing clouds.12 mph93%29.92 "Hg6 mi
6:20 PM37 °FPassing clouds.13 mph87%29.92 "Hg6 mi
5:50 PM36 °FPartly cloudy.10 mph93%29.92 "Hg6 mi
5:20 PM37 °FMostly cloudy.12 mph87%29.95 "Hg6 mi
4:50 PM37 °FOvercast.14 mph93%29.92 "Hg6 mi
4:20 PM37 °FPassing clouds.14 mph93%29.92 "Hg5 mi
3:50 PM37 °FPartly sunny.14 mph93%29.92 "Hg5 mi
3:20 PM39 °FOvercast.15 mph87%29.92 "Hg6 mi
2:50 PM39 °FOvercast.15 mph87%29.92 "Hg5 mi
2:20 PM37 °FOvercast.15 mph93%29.92 "Hg5 mi
1:50 PM37 °FOvercast.16 mph93%29.92 "Hg6 mi
1:20 PM37 °FOvercast.14 mph93%29.92 "Hg5 mi
12:50 PM37 °FOvercast.16 mph93%29.95 "Hg5 mi
12:20 PM37 °FPartly sunny.16 mph87%29.95 "Hg6 mi
11:50 AM37 °FPartly sunny.17 mph87%29.95 "Hg5 mi
11:20 AM37 °FPartly sunny.17 mph87%29.95 "Hg4 mi
10:50 AM36 °FPartly sunny.15 mph93%29.95 "Hg4 mi
10:20 AM36 °FFog.14 mph93%29.95 "Hg3 mi
9:50 AM36 °FFog.14 mph93%29.95 "Hg2 mi
8:50 AM34 °FFog.14 mph100%29.95 "Hg2 mi
8:20 AM34 °FFog.13 mph100%29.95 "Hg2 mi
7:50 AM34 °FFog.14 mph100%29.95 "Hg2 mi
7:20 AM34 °FFog.12 mph100%29.95 "Hg2 mi
6:50 AM34 °FFog.10 mph93%29.98 "Hg3 mi
5:50 AM32 °FIce fog.10 mph100%29.98 "Hg2 mi
5:20 AM32 °FIce fog.10 mph100%29.98 "Hg2 mi
4:50 AM30 °FIce fog.12 mph100%29.98 "Hg2 mi
4:20 AM30 °FIce fog.13 mph100%29.98 "Hg2 mi
3:50 AM30 °FIce fog.12 mph100%30.01 "Hg3 mi
3:20 AM30 °FIce fog.14 mph100%30.01 "Hg3 mi
Weather by CustomWeather, © 2015

See weather overviewHow to use our weather pages